Flag for Belgium Weather past 2 weeks in Mons, Belgium

Now
52 °F

Fog.


Feels Like: 51 °F
Forecast: 47 / 63 °F
Wind: 5 mph from South

Location: Chievres

Current Time: Sep 3, 2015 at 3:00:32 AM

Latest Report: Sep 3, 2015 at 2:25 AM


Visibility: 1 mi

Pressure: 30.01 "Hg

Humidity: 100%

Dew point: 52 °F

Location of MonsLocation

Historic Weather in Mons — Graph

°F

Mons temperature yesterday

Maximum temperature yesterday: 64 °F (at 2:55 PM)
Minimum temperature yesterday: 50 °F (at 3:25 AM)
Average temperature yesterday: 56 °F

Past Weeks' High & Low Weather Summary

 TemperatureHumidityPressure
High88 °F (Aug 30, 3:55 PM)100% (Aug 21, 1:55 AM)30.24 "Hg (Aug 21, 1:55 AM)
Low48 °F (Aug 29, 5:55 AM)32% (Aug 22, 4:55 PM)29.45 "Hg (Aug 24, 2:25 PM)
Average65 °F78%29.95 "Hg
* Reported Aug 19 1:25 AM — Sep 3 1:55 AM, Mons, Weather by CustomWeather, © 2015

Note: Actual official high and low records may vary slightly from our data, if they occured in-between our weather recording intervals... More about our weather records

Advertising

Mons weather history for previous 24 hours

 ConditionsComfort  
Time TempWeatherWind HumidityBarometerVisibility
1:55 AM
Thu, Sep 3
52 °FFog.5 mph94%30.01 "Hg1 mi
1:25 AM52 °FFog.3 mph94%30.01 "Hg1 mi
12:55 AM54 °FFog.3 mph94%30.01 "Hg2 mi
12:25 AM54 °FFog.3 mph94%30.01 "Hg1 mi
11:55 PM
Wed, Sep 2
54 °FFog.2 mph94%30.04 "Hg1 mi
11:25 PM54 °FFog.3 mph94%30.04 "Hg1 mi
11:03 PM54 °FFog.2 mph100%30.04 "Hg2 mi
10:55 PM55 °FFog.2 mph94%30.04 "Hg2 mi
10:25 PM55 °FPassing clouds.5 mph94%30.04 "Hg3 mi
9:55 PM55 °FPassing clouds.5 mph94%30.04 "Hg3 mi
9:25 PM55 °FPartly sunny.3 mph100%30.01 "Hg4 mi
8:55 PM57 °FPartly sunny.2 mph88%30.01 "HgN/A
8:25 PM57 °FMostly cloudy.1 mph88%30.01 "HgN/A
7:55 PM57 °FLight rain. Overcast.3 mph88%30.01 "HgN/A
7:25 PM57 °FLight rain. Overcast.2 mph88%30.01 "HgN/A
6:55 PM59 °FLight rain. Overcast.3 mph82%30.04 "HgN/A
6:25 PM59 °FOvercast.1 mph77%30.04 "HgN/A
5:55 PM59 °FMostly cloudy.2 mph82%30.04 "HgN/A
5:25 PM57 °FLight rain. Overcast.3 mph88%30.04 "HgN/A
4:55 PM57 °FRain. Mostly cloudy.9 mph82%30.04 "HgN/A
4:25 PM59 °FHeavy rain. Partly sunny.10 mph77%30.04 "Hg3 mi
3:55 PM64 °FPartly sunny.3 mph64%30.01 "HgN/A
3:25 PM64 °FMild.2 mph60%30.01 "HgN/A
2:55 PM64 °FScattered clouds.2 mph60%30.04 "HgN/A
2:25 PM63 °FPartly sunny.3 mph64%30.04 "HgN/A
1:55 PM61 °FLight rain. Partly sunny.5 mph77%30.04 "HgN/A
1:25 PM61 °FPartly sunny.7 mph72%30.04 "HgN/A
12:55 PM63 °FBroken clouds.5 mph73%30.04 "HgN/A
12:25 PM63 °FPartly sunny.5 mph73%30.04 "HgN/A
11:55 AM61 °FPartly sunny.5 mph77%30.04 "HgN/A
11:25 AM59 °FScattered clouds.5 mph82%30.07 "HgN/A
10:55 AM59 °FPartly sunny.5 mph82%30.07 "HgN/A
10:25 AM57 °FPartly sunny.6 mph88%30.07 "Hg4 mi
9:55 AM57 °FPartly sunny.7 mph88%30.07 "Hg4 mi
9:25 AM57 °FPassing clouds.7 mph88%30.04 "Hg4 mi
8:55 AM55 °FPassing clouds.7 mph94%30.04 "Hg4 mi
8:25 AM54 °FPassing clouds.5 mph100%30.04 "Hg3 mi
7:55 AM52 °FFog.3 mph100%30.04 "Hg2 mi
7:25 AM50 °FFog.3 mph100%30.04 "Hg2 mi
6:55 AM52 °FFog.7 mph94%30.04 "Hg2 mi
6:25 AM50 °FFog.5 mph100%30.04 "Hg2 mi
5:55 AM52 °FFog.5 mph94%30.07 "Hg2 mi
5:25 AM52 °FFog.5 mph94%30.07 "Hg2 mi
4:55 AM52 °FFog.5 mph100%30.07 "Hg2 mi
4:25 AM52 °FFog.2 mph100%30.07 "Hg2 mi
4:03 AM52 °FPassing clouds.5 mph100%30.07 "Hg2 mi
3:55 AM52 °FPassing clouds.5 mph100%30.07 "Hg3 mi
3:25 AM50 °FPassing clouds.3 mph100%30.07 "Hg6 mi
Weather by CustomWeather, © 2015

See weather overviewHow to use our weather pages